Temp
-27 -26 -26 -26 -26 -26 -26 -26 -26 -26 -26 -26 -26 -26 -26 -26 -26 -26 -26 -26 -26 -26 -26 -26 -27 -28 -28 -30 -30 -30 -30 -30 -30 -29 -29 -28 -28 -28 -27 -27 -27 -27 -27 -27 -27 -27 -26 -26 -26 -26 -25 -25 -25 -24
-27 -27 -27 -26 -26 -26 -26 -26 -26 -26 -26 -26 -26 -26 -26 -26 -26 -26 -26 -26 -26 -26 -26 -27 -27 -28 -28 -29 -30 -30 -30 -30 -30 -29 -29 -29 -28 -28 -27 -27 -27 -27 -26 -27 -27 -27 -26 -26 -26 -25 -25 -25 -24 -23
-27 -27 -27 -26 -26 -26 -26 -26 -26 -26 -26 -26 -26 -26 -26 -26 -26 -26 -26 -26 -26 -26 -26 -27 -28 -28 -28 -29 -29 -29 -29 -29 -29 -29 -29 -28 -28 -27 -27 -27 -26 -26 -26 -26 -26 -26 -26 -25 -25 -25 -24 -24 -24 -24
-27 -27 -27 -27 -27 -27 -27 -27 -27 -27 -26 -27 -27 -27 -27 -27 -27 -27 -26 -26 -26 -26 -27 -27 -28 -28 -28 -29 -29 -29 -28 -29 -28 -28 -28 -28 -28 -27 -27 -26 -26 -26 -26 -25 -26 -25 -25 -25 -25 -25 -24 -24 -24 -24
-27 -27 -27 -27 -27 -27 -27 -27 -27 -27 -27 -27 -27 -27 -27 -27 -27 -27 -27 -26 -26 -27 -27 -27 -28 -28 -29 -29 -29 -28 -28 -29 -28 -28 -28 -28 -27 -27 -27 -26 -26 -26 -26 -25 -25 -25 -25 -24 -24 -24 -24 -24 -24 -24
-28 -28 -27 -27 -27 -27 -27 -27 -27 -27 -27 -27 -27 -27 -27 -27 -27 -27 -27 -26 -26 -27 -27 -27 -27 -28 -28 -29 -29 -28 -28 -28 -28 -28 -28 -27 -27 -27 -27 -26 -26 -26 -25 -25 -25 -25 -25 -24 -24 -24 -24 -25 -24 -24
-28 -28 -28 -28 -28 -28 -28 -28 -28 -28 -28 -28 -28 -28 -28 -27 -27 -27 -27 -26 -26 -27 -27 -28 -28 -28 -29 -29 -29 -29 -28 -28 -28 -28 -27 -27 -26 -26 -26 -26 -26 -25 -25 -25 -24 -24 -24 -24 -24 -24 -24 -24 -24 -24
-29 -29 -28 -28 -28 -28 -28 -28 -28 -28 -28 -28 -28 -28 -28 -28 -28 -28 -27 -27 -27 -27 -28 -28 -28 -28 -29 -29 -29 -29 -29 -28 -28 -28 -27 -26 -26 -26 -26 -26 -25 -25 -25 -25 -25 -24 -24 -24 -24 -24 -24 -24 -24 -24
-30 -30 -29 -29 -28 -28 -28 -29 -28 -28 -28 -29 -29 -28 -28 -28 -28 -28 -27 -27 -27 -27 -28 -28 -28 -28 -29 -29 -29 -29 -28 -28 -28 -27 -27 -26 -26 -26 -26 -26 -25 -25 -25 -24 -24 -24 -24 -24 -24 -24 -24 -24 -24 -24
-31 -31 -30 -29 -29 -29 -29 -29 -29 -29 -29 -29 -29 -29 -29 -29 -28 -28 -27 -27 -28 -28 -28 -28 -28 -28 -28 -28 -28 -28 -28 -28 -28 -28 -27 -26 -26 -26 -26 -25 -25 -25 -25 -25 -25 -24 -24 -24 -24 -24 -25 -25 -24 -24
-33 -32 -31 -30 -29 -29 -29 -29 -29 -30 -30 -29 -29 -29 -29 -29 -28 -28 -28 -28 -28 -28 -28 -28 -28 -28 -28 -28 -28 -28 -28 -28 -28 -27 -27 -27 -26 -26 -26 -26 -26 -26 -25 -25 -25 -25 -25 -25 -25 -25 -25 -25 -25 -25
-34 -33 -32 -31 -30 -29 -29 -29 -30 -30 -30 -30 -30 -29 -29 -29 -29 -28 -28 -28 -29 -29 -29 -28 -28 -28 -28 -28 -28 -28 -28 -28 -27 -27 -27 -27 -26 -26 -26 -26 -26 -26 -26 -26 -26 -26 -26 -26 -26 -25 -25 -25 -25 -25
-34 -33 -32 -31 -30 -30 -29 -29 -30 -31 -31 -31 -30 -30 -29 -29 -29 -28 -28 -29 -29 -29 -28 -28 -28 -28 -28 -28 -28 -28 -28 -27 -27 -27 -27 -27 -26 -26 -26 -26 -26 -26 -26 -26 -26 -26 -26 -26 -26 -26 -26 -26 -26 -25
-34 -33 -33 -32 -32 -31 -31 -31 -32 -32 -31 -31 -31 -30 -30 -29 -28 -28 -29 -29 -29 -29 -29 -28 -28 -28 -28 -28 -28 -27 -27 -27 -27 -27 -27 -26 -26 -26 -26 -26 -26 -26 -26 -26 -26 -26 -26 -26 -26 -26 -27 -27 -27 -27
-33 -33 -33 -32 -32 -32 -32 -32 -32 -32 -31 -31 -30 -30 -29 -29 -29 -29 -29 -29 -29 -29 -29 -29 -28 -28 -28 -27 -27 -27 -27 -27 -27 -27 -26 -26 -26 -26 -26 -26 -26 -26 -26 -26 -26 -26 -27 -27 -27 -27 -27 -27 -27 -27
-33 -33 -33 -33 -32 -32 -33 -32 -32 -32 -31 -31 -31 -30 -29 -29 -29 -29 -29 -29 -29 -29 -29 -29 -28 -28 -27 -27 -27 -27 -27 -27 -27 -26 -26 -26 -27 -27 -26 -26 -26 -26 -26 -26 -26 -26 -26 -26 -26 -26 -26 -27 -27 -27
-32 -32 -32 -33 -33 -33 -32 -32 -31 -31 -31 -30 -30 -30 -30 -29 -29 -29 -29 -29 -29 -29 -29 -28 -28 -28 -27 -27 -27 -27 -27 -26 -26 -26 -27 -27 -27 -27 -27 -27 -26 -26 -26 -26 -27 -27 -27 -26 -26 -26 -26 -26 -26 -26
-33 -32 -32 -32 -32 -32 -32 -31 -31 -30 -30 -30 -29 -29 -29 -29 -29 -29 -29 -29 -29 -28 -28 -28 -28 -28 -27 -27 -27 -27 -27 -27 -27 -27 -27 -27 -27 -27 -26 -26 -26 -27 -27 -27 -27 -27 -26 -26 -26 -25 -25 -25 -25 -25
-31 -31 -31 -31 -31 -31 -30 -30 -30 -30 -30 -30 -29 -29 -29 -29 -29 -29 -29 -29 -29 -29 -28 -28 -27 -27 -27 -27 -27 -27 -27 -27 -27 -27 -27 -27 -27 -27 -27 -27 -27 -27 -27 -27 -27 -26 -26 -25 -25 -25 -24 -24 -25 -25
-30 -31 -31 -31 -30 -30 -30 -30 -30 -29 -30 -30 -30 -29 -29 -29 -29 -29 -29 -29 -29 -28 -28 -27 -27 -28 -27 -27 -27 -27 -27 -27 -27 -27 -27 -27 -27 -27 -27 -27 -27 -27 -27 -27 -26 -26 -25 -25 -25 -25 -25 -24 -24 -25
-30 -30 -30 -30 -30 -30 -30 -30 -30 -30 -30 -30 -30 -29 -29 -29 -29 -29 -29 -29 -28 -28 -28 -28 -28 -28 -28 -28 -28 -27 -27 -27 -27 -27 -27 -27 -27 -27 -27 -27 -27 -26 -26 -26 -26 -26 -25 -25 -24 -24 -24 -25 -24 -24
-29 -30 -30 -30 -30 -30 -30 -30 -30 -30 -30 -30 -30 -29 -29 -29 -29 -29 -29 -28 -28 -28 -28 -28 -28 -28 -28 -28 -28 -28 -27 -27 -27 -27 -27 -27 -27 -27 -27 -27 -26 -26 -26 -26 -26 -26 -26 -25 -25 -25 -25 -24 -25 -24
-30 -30 -30 -30 -30 -30 -30 -30 -30 -30 -30 -30 -29 -29 -29 -29 -29 -29 -28 -28 -28 -28 -28 -28 -28 -28 -28 -27 -27 -27 -27 -27 -27 -27 -27 -27 -27 -27 -27 -27 -27 -26 -26 -26 -26 -26 -26 -26 -26 -26 -25 -25 -25 -25
-30 -30 -30 -30 -30 -30 -29 -29 -29 -29 -29 -29 -29 -29 -29 -29 -29 -28 -28 -28 -28 -28 -28 -28 -28 -28 -27 -27 -27 -27 -27 -27 -27 -27 -27 -27 -27 -27 -27 -27 -27 -27 -27 -27 -27 -27 -27 -27 -26 -26 -26 -26 -26 -26
-30 -30 -30 -29 -29 -29 -29 -29 -29 -29 -29 -29 -29 -28 -28 -28 -28 -28 -28 -28 -28 -28 -28 -28 -28 -27 -27 -27 -27 -27 -27 -27 -28 -28 -28 -28 -28 -28 -28 -27 -27 -27 -27 -27 -27 -27 -27 -27 -27 -27 -27 -27 -27 -27
-29 -29 -29 -29 -29 -29 -29 -29 -29 -29 -28 -28 -28 -28 -28 -28 -28 -28 -28 -28 -28 -27 -27 -27 -27 -27 -28 -28 -28 -28 -28 -28 -28 -28 -28 -28 -28 -28 -28 -28 -28 -28 -28 -28 -28 -28 -28 -28 -28 -28 -28 -28 -28 -28
-29 -29 -29 -29 -29 -29 -29 -28 -28 -28 -28 -28 -28 -28 -28 -28 -28 -28 -28 -28 -28 -28 -28 -28 -28 -28 -28 -28 -28 -28 -28 -28 -28 -28 -28 -28 -29 -29 -29 -29 -29 -29 -29 -29 -29 -29 -29 -29 -29 -29 -29 -30 -30 -30
-28 -28 -28 -28 -28 -28 -28 -28 -28 -28 -28 -28 -28 -28 -28 -28 -28 -28 -28 -28 -28 -28 -28 -28 -28 -28 -28 -28 -28 -29 -29 -29 -29 -29 -29 -29 -29 -29 -30 -30 -30 -30 -30 -30 -30 -30 -30 -30 -30 -30 -30 -30 -31 -31
-27 -27 -27 -27 -28 -28 -28 -28 -28 -28 -28 -28 -28 -28 -28 -28 -28 -28 -28 -28 -28 -28 -28 -28 -28 -29 -29 -29 -29 -30 -30 -30 -30 -30 -30 -30 -30 -30 -30 -30 -31 -31 -31 -31 -32 -32 -32 -32 -32 -32 -32 -32 -33 -33
-27 -27 -27 -27 -27 -27 -27 -28 -28 -28 -28 -28 -28 -28 -28 -28 -28 -28 -28 -28 -28 -28 -29 -29 -30 -30 -30 -30 -30 -30 -30 -30 -30 -30 -30 -30 -30 -30 -31 -32 -33 -34 -34 -34 -34 -34 -34 -34 -35 -35 -35 -35 -35 -35
-28 -28 -27 -28 -28 -28 -28 -28 -28 -28 -28 -28 -28 -28 -28 -29 -29 -29 -28 -29 -29 -30 -30 -30 -30 -30 -30 -30 -30 -31 -31 -31 -31 -31 -31 -32 -33 -33 -34 -34 -35 -35 -35 -35 -35 -35 -35 -36 -36 -36 -36 -36 -36 -36
-28 -28 -28 -28 -28 -28 -28 -28 -28 -29 -29 -29 -29 -29 -29 -29 -29 -29 -29 -30 -30 -30 -31 -31 -31 -31 -31 -31 -31 -31 -31 -32 -32 -32 -33 -34 -34 -34 -34 -35 -35 -35 -35 -36 -36 -36 -36 -36 -36 -36 -36 -36 -37 -37
-28 -28 -28 -28 -28 -28 -28 -29 -29 -29 -29 -29 -29 -29 -29 -30 -30 -30 -31 -31 -31 -31 -31 -31 -31 -31 -31 -32 -32 -32 -32 -33 -33 -34 -35 -35 -35 -35 -35 -35 -35 -36 -36 -36 -36 -36 -36 -36 -37 -37 -37 -37 -37 -37
Height
5443 5452 5460 5468 5476 5483 5491 5497 5503 5509 5513 5519 5523 5526 5529 5530 5531 5533 5532 5530 5527 5525 5522 5517 5515 5512 5508 5505 5506 5507 5508 5507 5506 5505 5504 5503 5502 5502 5501 5500 5498 5497 5496 5495 5494 5493 5494 5491 5491 5491 5493 5494 5496 5497
5433 5442 5451 5460 5467 5475 5482 5489 5495 5502 5507 5511 5516 5519 5522 5524 5526 5527 5527 5525 5522 5520 5518 5514 5512 5510 5508 5505 5504 5505 5506 5505 5504 5504 5504 5503 5502 5502 5501 5500 5500 5499 5497 5495 5495 5494 5493 5492 5492 5491 5493 5493 5496 5496
5423 5431 5441 5450 5458 5466 5473 5480 5487 5493 5499 5504 5509 5512 5515 5517 5520 5521 5521 5520 5518 5516 5512 5510 5509 5507 5506 5504 5504 5503 5503 5504 5504 5504 5503 5502 5502 5501 5500 5500 5500 5499 5497 5495 5496 5495 5494 5494 5494 5494 5494 5494 5496 5497
5411 5420 5430 5439 5448 5456 5464 5471 5478 5485 5490 5496 5501 5505 5508 5511 5514 5515 5515 5515 5514 5512 5509 5507 5505 5504 5503 5502 5501 5500 5501 5502 5503 5503 5502 5502 5502 5501 5501 5500 5500 5499 5498 5495 5494 5495 5496 5495 5495 5495 5495 5495 5496 5497
5397 5408 5418 5428 5437 5445 5453 5461 5468 5475 5482 5488 5493 5497 5501 5504 5508 5509 5510 5509 5509 5508 5505 5501 5501 5501 5499 5498 5496 5497 5498 5499 5501 5502 5502 5502 5502 5502 5500 5499 5498 5499 5498 5497 5495 5494 5494 5495 5495 5495 5496 5496 5496 5495
5382 5394 5405 5416 5425 5434 5443 5452 5459 5466 5473 5479 5485 5490 5493 5498 5501 5503 5505 5505 5504 5502 5501 5498 5498 5497 5495 5494 5493 5493 5495 5496 5499 5501 5501 5501 5501 5501 5500 5499 5499 5498 5497 5497 5497 5496 5496 5497 5496 5496 5497 5496 5495 5494
5366 5378 5391 5403 5413 5422 5432 5441 5449 5457 5464 5471 5477 5482 5487 5491 5494 5498 5500 5500 5499 5498 5497 5494 5493 5492 5491 5490 5490 5491 5493 5496 5498 5500 5501 5501 5500 5499 5499 5498 5498 5497 5497 5498 5498 5498 5498 5497 5497 5496 5496 5495 5494 5492
5350 5363 5375 5387 5399 5410 5420 5430 5439 5448 5455 5462 5468 5474 5479 5485 5489 5491 5493 5494 5494 5494 5493 5491 5491 5490 5490 5489 5489 5491 5494 5496 5498 5499 5499 5499 5499 5498 5498 5497 5497 5497 5497 5497 5497 5497 5497 5496 5496 5495 5493 5492 5491 5489
5336 5349 5361 5373 5385 5397 5409 5419 5428 5437 5445 5452 5459 5466 5473 5479 5483 5485 5487 5489 5490 5492 5489 5488 5488 5488 5489 5490 5491 5492 5494 5496 5497 5497 5498 5498 5497 5496 5496 5496 5496 5496 5495 5495 5495 5494 5493 5493 5492 5491 5489 5488 5486 5484
5324 5336 5349 5362 5373 5384 5395 5406 5417 5426 5435 5443 5451 5460 5467 5473 5475 5480 5481 5484 5485 5486 5484 5484 5484 5485 5488 5490 5492 5494 5494 5494 5495 5496 5496 5496 5496 5495 5494 5494 5493 5493 5493 5493 5492 5492 5491 5490 5489 5487 5485 5484 5482 5480
5315 5327 5340 5353 5364 5374 5384 5395 5406 5415 5423 5433 5444 5451 5460 5464 5467 5471 5475 5478 5481 5481 5480 5480 5482 5483 5486 5489 5490 5491 5492 5493 5494 5495 5494 5494 5493 5493 5492 5492 5492 5491 5491 5490 5489 5488 5488 5487 5485 5484 5482 5481 5480 5478
5310 5321 5333 5345 5356 5367 5377 5386 5395 5404 5419 5431 5439 5445 5451 5455 5460 5465 5469 5474 5476 5476 5474 5475 5478 5480 5483 5485 5487 5489 5490 5490 5491 5492 5492 5491 5490 5490 5490 5489 5489 5488 5487 5487 5486 5485 5484 5482 5481 5479 5478 5476 5475 5474
5309 5320 5330 5340 5350 5360 5370 5380 5389 5401 5413 5423 5431 5437 5445 5448 5453 5460 5466 5471 5470 5469 5468 5471 5474 5477 5480 5482 5484 5485 5487 5488 5488 5488 5488 5488 5487 5487 5486 5486 5485 5485 5484 5483 5482 5481 5479 5478 5476 5474 5473 5471 5470 5469
5310 5319 5328 5338 5347 5357 5366 5375 5386 5397 5408 5418 5425 5432 5438 5444 5452 5460 5464 5465 5465 5465 5466 5468 5471 5475 5478 5480 5481 5483 5484 5484 5485 5484 5484 5483 5483 5484 5483 5483 5482 5481 5480 5479 5478 5476 5474 5472 5470 5468 5467 5465 5464 5462
5312 5321 5330 5339 5348 5356 5365 5376 5387 5398 5407 5417 5423 5429 5437 5446 5452 5455 5459 5461 5462 5462 5463 5466 5468 5471 5474 5477 5479 5480 5481 5480 5480 5479 5480 5480 5480 5480 5479 5478 5477 5476 5475 5474 5472 5470 5468 5465 5463 5462 5460 5458 5457 5455
5314 5323 5332 5341 5349 5359 5369 5379 5388 5399 5408 5416 5422 5430 5437 5443 5448 5453 5455 5457 5457 5458 5459 5462 5466 5469 5471 5473 5475 5476 5476 5476 5476 5475 5475 5475 5474 5474 5473 5472 5470 5469 5468 5466 5464 5462 5460 5458 5456 5453 5451 5449 5448 5447
5321 5328 5335 5344 5354 5364 5373 5383 5392 5400 5406 5415 5423 5429 5436 5441 5446 5450 5452 5452 5453 5454 5455 5458 5463 5466 5468 5469 5471 5471 5471 5471 5471 5472 5471 5470 5469 5468 5467 5466 5464 5462 5460 5458 5456 5453 5451 5448 5445 5442 5440 5438 5436 5435
5330 5338 5346 5354 5362 5371 5380 5388 5395 5402 5410 5418 5424 5430 5435 5440 5444 5446 5447 5448 5450 5450 5452 5455 5459 5461 5464 5466 5467 5466 5466 5466 5466 5466 5465 5465 5464 5462 5460 5458 5456 5454 5452 5450 5447 5444 5440 5437 5433 5430 5427 5423 5421 5418
5346 5352 5359 5366 5375 5382 5388 5393 5399 5407 5414 5420 5425 5430 5434 5438 5440 5442 5444 5445 5447 5447 5450 5452 5455 5458 5460 5462 5461 5461 5461 5461 5461 5461 5460 5459 5457 5455 5453 5451 5449 5446 5443 5440 5437 5433 5429 5425 5422 5420 5416 5412 5406 5400
5356 5362 5369 5375 5382 5388 5395 5401 5406 5411 5415 5421 5425 5429 5432 5435 5437 5439 5441 5442 5443 5444 5446 5449 5452 5454 5455 5455 5456 5456 5456 5456 5455 5455 5454 5452 5450 5448 5445 5442 5440 5437 5434 5431 5427 5424 5420 5418 5415 5412 5409 5403 5395 5388
5365 5370 5376 5383 5388 5394 5399 5404 5408 5412 5416 5421 5425 5428 5431 5433 5435 5436 5438 5439 5440 5442 5444 5446 5448 5449 5450 5451 5451 5450 5450 5449 5448 5448 5446 5444 5441 5438 5436 5433 5430 5427 5424 5421 5418 5416 5413 5411 5408 5405 5402 5398 5392 5386
5374 5379 5384 5389 5393 5398 5402 5406 5410 5414 5417 5421 5424 5427 5429 5431 5432 5434 5436 5437 5438 5440 5441 5442 5443 5444 5445 5445 5445 5444 5444 5442 5441 5439 5436 5434 5431 5428 5425 5421 5418 5415 5413 5411 5410 5409 5406 5404 5401 5399 5397 5394 5390 5387
5382 5385 5389 5393 5398 5401 5406 5408 5410 5414 5417 5420 5423 5425 5427 5428 5430 5432 5434 5435 5436 5436 5437 5438 5439 5439 5439 5439 5438 5437 5435 5434 5432 5429 5427 5424 5420 5417 5414 5411 5407 5406 5404 5404 5402 5401 5399 5397 5395 5392 5390 5388 5386 5384
5386 5390 5393 5396 5399 5403 5406 5408 5411 5413 5415 5418 5421 5423 5425 5427 5428 5429 5430 5431 5432 5432 5433 5433 5433 5433 5432 5431 5430 5428 5426 5424 5422 5419 5416 5414 5411 5409 5406 5404 5402 5399 5398 5396 5394 5392 5390 5388 5386 5384 5382 5381 5379 5378
5391 5394 5396 5398 5401 5404 5406 5408 5410 5412 5415 5418 5419 5421 5422 5423 5424 5425 5426 5427 5427 5428 5428 5427 5426 5425 5424 5423 5421 5419 5416 5414 5412 5409 5407 5405 5402 5400 5398 5395 5393 5390 5388 5386 5384 5381 5379 5377 5376 5374 5372 5371 5369 5368
5391 5394 5397 5399 5401 5403 5405 5408 5410 5412 5414 5415 5417 5419 5420 5420 5421 5422 5423 5422 5422 5422 5421 5420 5419 5417 5416 5414 5412 5410 5407 5405 5402 5400 5397 5394 5391 5389 5386 5383 5380 5378 5375 5373 5370 5368 5365 5363 5362 5360 5358 5357 5356 5354
5392 5395 5397 5399 5401 5403 5405 5407 5409 5410 5412 5413 5415 5415 5416 5417 5417 5418 5417 5417 5416 5416 5415 5413 5412 5410 5408 5406 5403 5400 5397 5394 5391 5388 5385 5382 5379 5376 5373 5370 5367 5365 5362 5359 5357 5354 5352 5350 5348 5346 5344 5343 5341 5340
5391 5393 5396 5398 5400 5402 5403 5405 5407 5408 5409 5411 5412 5412 5413 5413 5414 5414 5413 5412 5411 5410 5408 5406 5404 5401 5398 5395 5392 5388 5385 5382 5379 5376 5373 5370 5366 5363 5360 5357 5354 5351 5348 5346 5343 5340 5338 5335 5333 5331 5330 5328 5326 5325
5390 5392 5394 5396 5398 5400 5402 5403 5405 5406 5407 5408 5409 5410 5410 5410 5410 5409 5408 5407 5406 5403 5401 5397 5394 5391 5388 5385 5382 5378 5375 5372 5369 5365 5361 5358 5354 5351 5347 5343 5340 5336 5333 5330 5327 5325 5323 5320 5318 5316 5314 5313 5311 5310
5390 5392 5394 5396 5397 5399 5401 5402 5403 5404 5405 5406 5406 5406 5406 5406 5405 5404 5403 5401 5398 5394 5391 5388 5385 5382 5379 5376 5372 5369 5365 5361 5357 5354 5349 5345 5341 5336 5332 5328 5325 5322 5320 5318 5315 5313 5310 5308 5306 5304 5302 5300 5298 5297
5390 5392 5394 5395 5397 5398 5400 5401 5401 5402 5402 5403 5403 5403 5402 5401 5400 5398 5396 5393 5390 5387 5385 5382 5379 5375 5372 5368 5364 5359 5355 5351 5346 5341 5336 5332 5327 5324 5321 5318 5316 5314 5312 5309 5307 5305 5302 5300 5298 5295 5293 5291 5290 5288
5390 5392 5394 5395 5396 5397 5398 5399 5399 5399 5399 5399 5399 5398 5397 5396 5395 5393 5389 5387 5384 5382 5379 5376 5372 5368 5364 5360 5355 5350 5345 5339 5334 5329 5325 5322 5319 5316 5313 5310 5308 5306 5304 5302 5300 5298 5296 5293 5291 5289 5287 5285 5283 5281
5388 5390 5391 5392 5393 5394 5394 5395 5395 5395 5395 5395 5395 5394 5392 5391 5389 5387 5384 5382 5380 5377 5373 5370 5366 5362 5357 5352 5346 5340 5334 5328 5323 5319 5316 5313 5311 5308 5305 5303 5300 5298 5296 5294 5292 5290 5288 5286 5284 5282 5280 5278 5276 5274
Wind_Speed
40 39 43 43 44 42 39 36 34 32 30 28 27 26 23 21 21 21 22 24 27 30 32 28 21 19 15 1 3 4 8 11 10 5 5 6 3 2 9 10 9 8 6 9 6 5 7 8 3 4 4 4 5 2
45 45 45 44 44 44 42 38 36 33 32 31 29 27 24 22 21 21 22 24 26 30 31 26 19 15 14 4 2 4 7 8 7 6 4 6 4 6 7 9 11 14 7 9 12 9 7 5 6 7 3 4 5 6
52 51 50 47 47 45 42 40 38 36 35 33 31 28 25 23 21 21 22 24 26 28 32 25 17 16 14 7 5 6 4 4 5 3 3 3 4 3 5 5 8 11 15 15 8 6 7 7 4 7 9 7 6 6
58 56 54 53 51 49 47 44 42 40 38 35 33 29 26 24 22 20 22 24 26 28 28 23 17 15 12 11 11 10 6 4 7 6 5 3 2 2 4 4 1 7 9 14 19 17 5 5 4 3 9 7 3 2
64 61 59 56 55 53 50 47 45 42 40 37 34 31 27 26 22 20 22 24 26 27 26 25 18 14 13 12 13 10 8 7 9 11 6 5 2 4 5 6 4 1 4 6 12 12 16 13 10 8 3 1 3 4
69 66 64 60 58 55 53 50 47 44 41 38 35 32 29 26 22 21 22 23 27 27 24 22 16 12 14 10 8 7 6 13 14 9 6 7 6 5 7 7 5 2 1 3 7 9 6 4 3 7 7 7 5 9
73 71 67 64 62 59 55 51 49 46 43 40 37 33 30 26 24 22 22 23 26 26 21 17 13 14 8 5 5 8 17 16 10 8 8 7 8 8 8 9 4 3 4 4 7 3 1 0 5 8 10 12 13 14
67 70 71 69 65 61 58 55 52 49 45 41 37 35 32 27 24 24 23 23 26 23 18 14 11 8 3 6 10 14 15 10 5 7 8 9 9 8 9 10 8 6 3 3 6 8 9 8 9 13 16 19 21 21
63 61 61 67 68 64 61 57 53 49 46 43 40 37 32 27 26 26 24 24 26 19 14 13 9 7 10 10 11 10 9 6 5 8 9 8 10 11 11 11 8 7 6 7 8 9 10 11 12 13 15 18 19 21
53 55 56 53 54 59 61 58 54 52 50 47 43 38 32 29 29 27 26 26 22 14 13 16 10 13 15 12 9 6 6 7 7 6 6 7 9 11 11 11 11 11 11 10 10 10 11 11 11 13 13 13 14 13
46 48 49 49 45 45 46 50 51 50 49 47 44 40 36 33 33 30 28 25 16 12 15 18 13 16 16 15 12 9 9 9 8 6 4 6 9 9 11 11 11 11 10 9 9 10 11 11 12 12 13 12 12 12
43 44 44 44 42 40 39 41 44 47 44 39 38 39 39 38 34 30 27 20 11 11 19 19 16 19 19 16 14 12 14 12 10 7 7 9 11 10 9 8 8 9 9 10 10 11 13 14 15 16 17 17 16 15
40 40 40 41 41 41 40 39 38 38 38 38 41 41 40 39 36 31 20 12 13 17 21 18 18 22 19 17 15 14 16 15 12 11 11 14 12 11 9 9 11 11 11 11 13 15 17 19 20 21 20 20 20 20
38 38 38 37 36 35 36 37 36 42 41 42 41 41 41 38 32 19 15 12 14 17 19 17 21 21 19 18 16 14 15 15 14 13 14 15 11 9 10 10 10 11 13 15 17 19 21 22 22 22 22 21 21 21
36 37 37 35 34 33 35 38 41 41 40 41 38 35 34 26 21 20 14 12 14 14 14 19 24 22 19 17 16 15 15 15 15 18 17 16 14 13 12 12 13 14 16 16 17 18 20 21 22 22 23 24 25 24
37 38 36 34 35 39 43 42 39 41 40 30 30 28 24 24 21 16 13 10 12 10 13 20 22 21 19 17 12 11 12 14 17 17 15 16 15 15 16 17 19 20 22 22 23 25 25 25 27 26 27 27 27 27
34 34 38 41 44 43 41 43 46 44 30 31 28 26 24 22 17 14 11 9 11 11 12 21 21 19 18 14 13 15 16 18 16 15 16 16 18 20 21 22 24 26 26 27 28 28 30 32 33 34 34 33 33 32
41 42 43 42 41 43 45 43 41 37 31 27 28 25 20 16 14 9 8 11 12 10 15 20 21 21 19 15 16 18 18 18 17 16 17 19 21 22 24 25 25 25 25 28 32 34 35 36 37 36 33 33 34 37
37 37 38 39 39 37 35 34 32 30 27 23 20 16 14 12 11 10 10 10 11 13 17 20 23 22 19 17 20 20 20 20 20 20 21 22 24 26 26 27 29 29 30 34 34 36 37 31 25 25 27 35 35 34
33 31 30 31 32 31 30 28 27 24 20 15 12 11 11 12 11 13 11 13 13 14 17 19 19 17 19 20 21 21 21 21 22 23 25 27 28 30 32 32 33 33 35 35 35 32 27 25 24 24 25 30 29 27
32 32 30 27 26 26 25 24 20 17 15 13 9 8 9 13 15 14 12 10 11 12 13 15 16 17 19 20 20 20 21 23 25 27 29 31 33 34 33 34 35 36 36 35 30 27 25 23 22 23 25 27 26 21
28 28 28 28 25 21 20 16 15 14 14 11 10 11 14 16 17 15 12 11 8 9 12 15 17 17 19 20 22 23 25 27 29 31 33 34 35 37 38 39 38 36 32 27 24 24 22 21 21 22 23 24 25 21
18 18 21 23 23 19 17 17 17 16 16 17 16 16 17 18 17 15 12 11 12 13 14 16 18 20 22 23 24 26 28 30 32 33 34 36 35 30 27 25 21 19 19 23 26 26 26 26 26 26 26 25 25 23
18 19 19 19 20 19 21 19 19 19 19 19 18 17 18 16 16 17 15 15 15 15 16 17 19 21 23 25 28 29 31 33 35 34 30 27 27 26 26 27 26 26 27 28 30 31 32 32 32 31 30 29 28 26
21 21 21 20 18 17 16 15 15 16 17 17 16 15 16 17 16 15 13 14 14 17 20 22 23 25 26 28 31 32 28 26 26 27 29 30 32 32 33 34 34 34 35 36 37 37 37 37 37 36 35 34 32 31
21 19 18 18 17 16 14 14 14 14 15 15 14 13 13 14 14 13 15 18 19 20 22 24 25 25 24 23 25 27 29 31 33 34 35 36 38 38 39 39 39 40 40 40 40 40 40 40 39 39 38 37 37 36
17 17 17 17 16 15 15 15 15 14 13 13 13 14 14 14 15 16 17 16 14 15 16 19 21 23 26 28 30 33 35 37 38 38 37 36 36 36 36 36 36 36 36 37 37 37 37 37 37 37 37 37 37 37
16 19 19 19 17 17 16 15 14 14 13 12 13 14 14 12 10 10 12 14 17 19 21 24 27 30 32 33 33 31 30 30 31 32 33 34 35 35 36 37 37 38 38 39 39 39 39 40 40 40 40 40 39 39
15 16 16 15 14 13 13 12 12 12 11 10 9 8 9 10 12 14 15 18 20 23 27 29 28 27 26 26 27 28 29 30 31 32 33 34 36 38 39 41 41 41 40 39 38 37 37 36 36 36 36 36 37 38
14 14 14 13 14 13 11 10 9 8 8 8 8 10 11 12 13 15 18 22 26 26 25 24 25 26 27 28 28 30 31 32 33 34 36 39 41 41 39 36 32 30 29 28 27 27 26 26 26 26 26 27 28 28
16 14 14 12 10 8 7 6 6 7 7 7 7 9 10 13 15 19 23 24 23 22 22 23 24 26 27 29 30 32 34 35 36 37 38 37 33 29 27 25 24 24 24 23 22 22 21 21 21 21 21 21 22 22
14 13 11 9 7 5 4 2 1 1 3 5 8 11 14 16 18 21 21 20 19 20 22 23 24 25 27 30 32 34 35 36 36 35 31 27 25 24 24 24 23 23 23 23 24 23 23 22 22 22 22 22 21 21
13 10 9 7 5 2 2 4 6 8 9 11 13 13 14 17 20 20 18 17 18 19 20 22 26 29 31 35 36 35 36 35 32 29 25 24 23 22 22 22 22 22 23 24 24 24 23 23 22 22 22 21 21 21
Wind_Direction
218 219 219 219 219 220 223 226 230 234 241 249 255 262 269 274 276 287 299 306 311 316 323 322 320 325 335 18 161 252 293 310 332 304 292 312 249 72 12 64 59 41 38 21 5 333 338 324 135 84 129 164 188 320
227 222 221 221 222 223 224 226 230 235 241 248 255 260 266 272 273 285 297 302 307 315 320 318 314 314 317 329 206 255 277 305 302 308 286 301 263 356 21 67 62 67 58 60 51 64 56 53 88 106 125 228 128 126
224 224 223 222 222 224 225 228 231 236 241 246 252 256 264 268 269 282 294 297 303 312 317 314 310 305 307 297 279 286 169 239 255 243 239 271 291 359 34 46 76 81 74 62 91 60 57 59 50 91 41 112 146 146
222 223 222 224 225 225 227 229 232 235 240 245 248 254 262 263 264 278 289 292 298 308 317 314 297 301 293 286 279 285 263 235 234 231 210 236 291 311 353 357 6 98 78 85 56 109 98 85 122 13 24 93 101 78
224 224 223 223 225 226 227 229 232 236 240 243 246 252 259 256 261 274 280 287 295 308 312 302 292 301 286 276 278 281 252 224 194 182 211 259 266 268 317 341 15 7 139 117 80 70 99 106 168 230 196 201 301 291
225 225 225 225 225 227 229 230 233 235 237 241 245 251 251 250 256 265 274 282 290 303 305 296 293 293 290 287 269 234 208 174 167 182 227 242 227 259 305 319 339 10 214 89 119 122 132 156 173 179 251 282 315 337
225 226 226 226 227 228 229 230 232 234 237 241 245 244 241 246 251 260 268 276 286 299 300 292 287 293 292 266 221 198 168 166 170 196 222 226 236 266 299 304 340 346 203 232 217 191 221 251 219 252 269 275 278 283
222 222 226 228 227 228 229 231 233 235 237 238 236 234 238 241 248 253 261 270 279 296 294 277 275 273 245 148 143 156 164 166 204 220 226 228 255 278 287 299 314 311 299 249 258 272 277 279 268 271 275 278 279 282
219 221 222 224 226 228 230 230 230 231 232 232 233 234 237 237 239 247 254 262 275 289 290 259 257 222 172 149 152 155 169 204 232 241 235 244 251 267 288 294 300 306 303 291 292 300 298 289 282 280 281 282 286 287
212 215 217 221 223 226 227 227 228 231 233 234 234 235 235 230 236 240 247 256 272 275 262 236 223 209 190 188 178 188 220 237 228 233 231 232 264 270 278 288 292 290 287 285 288 295 297 293 289 291 295 297 299 300
197 202 208 212 213 216 219 223 226 227 225 227 227 225 221 222 230 233 238 252 256 260 247 231 217 209 194 197 206 211 226 215 215 230 263 263 265 270 265 266 271 277 278 285 291 293 295 298 300 300 298 297 299 303
187 192 195 199 203 207 207 211 214 217 219 216 216 215 215 218 222 224 231 237 229 233 236 223 209 205 201 209 214 221 210 220 217 226 274 287 273 269 268 265 270 282 289 291 292 293 295 295 296 295 296 298 297 294
180 182 185 189 194 197 201 204 204 199 196 201 207 211 212 213 216 219 225 194 225 229 229 216 203 205 208 217 225 233 229 237 248 251 263 263 264 263 269 274 276 281 288 293 297 296 297 298 298 297 296 295 294 293
175 175 174 178 181 184 188 189 185 182 187 196 198 202 203 210 212 206 182 210 219 244 240 212 195 207 211 218 225 235 239 244 248 251 248 258 265 268 271 275 277 281 288 291 294 295 293 293 292 291 291 291 290 292
168 167 166 167 169 170 170 167 171 177 186 189 191 194 198 200 197 193 208 223 237 258 252 212 200 203 209 212 222 236 241 240 242 248 256 266 269 274 272 267 273 284 290 288 295 300 305 308 303 291 292 288 284 280
164 163 164 165 163 159 158 164 169 172 167 161 188 185 186 184 189 197 209 240 235 259 245 212 210 205 207 214 231 232 225 230 241 254 265 271 283 290 288 287 288 293 298 297 297 295 295 296 297 294 291 288 283 277
156 161 158 154 152 154 160 163 165 157 162 173 176 180 184 189 189 203 223 246 245 264 222 206 210 219 216 219 234 237 238 243 257 261 269 280 283 284 286 289 293 295 296 296 296 296 297 298 298 296 291 286 278 270
130 134 140 144 149 154 156 159 158 166 171 172 172 174 175 182 193 205 246 243 239 237 210 200 211 221 224 226 236 244 251 256 263 272 275 280 287 292 296 295 295 296 297 300 302 303 303 301 298 294 291 289 286 275
127 133 141 144 146 152 156 162 165 165 165 170 174 175 179 186 196 232 247 238 241 225 210 213 218 224 235 233 239 249 256 262 267 272 279 287 293 294 292 293 294 295 297 304 304 306 303 298 299 301 305 307 305 293
134 137 140 144 149 154 157 160 163 164 168 176 191 198 199 201 228 245 246 245 240 229 225 226 230 237 243 244 246 249 257 265 269 273 279 287 290 294 295 291 289 291 297 303 306 304 298 298 302 310 313 322 323 325
138 141 146 145 150 158 164 172 177 182 184 196 203 217 223 232 242 242 244 247 228 219 227 235 238 235 241 249 256 263 267 271 276 280 285 288 290 291 290 288 289 293 297 300 299 299 298 301 303 309 318 327 336 339
136 141 147 152 156 166 174 183 194 198 198 198 216 225 227 234 242 245 252 258 259 250 246 239 238 244 251 259 264 268 272 277 281 283 286 289 291 292 293 293 292 292 292 290 289 294 299 303 306 307 311 316 326 334
151 148 154 165 175 181 190 198 205 208 215 220 220 220 226 234 242 251 257 259 253 247 244 246 252 259 264 267 271 275 278 280 283 286 288 290 292 294 299 304 301 296 290 289 292 294 296 298 300 302 304 306 307 311
158 160 174 181 184 193 198 202 206 211 211 212 217 225 235 247 255 260 263 264 259 256 255 258 264 269 273 275 278 280 282 284 285 286 287 288 292 296 300 302 302 300 296 294 294 293 293 294 296 297 297 297 296 296
170 181 181 182 182 188 192 195 199 202 207 215 223 229 238 246 250 256 259 258 258 265 271 274 276 277 277 279 281 283 284 284 288 291 293 294 294 295 294 294 294 293 292 291 290 290 289 290 290 290 289 288 288 286
168 174 176 180 185 189 192 193 196 202 212 223 230 237 246 252 257 262 268 270 271 271 273 275 276 278 278 281 285 289 291 291 292 292 292 292 292 291 291 290 290 289 288 287 287 286 286 285 285 284 283 281 279 277
169 171 178 187 195 201 209 212 217 223 231 238 242 246 249 255 259 265 265 265 267 272 279 285 288 290 291 292 291 291 290 290 289 290 290 290 290 291 291 290 290 289 288 287 287 287 286 285 285 284 283 281 279 277
174 182 190 199 206 211 214 218 220 224 228 231 236 243 248 246 246 257 268 278 284 288 290 292 293 293 292 292 292 293 293 294 295 295 295 296 296 295 295 294 292 290 289 288 286 285 284 283 282 281 279 278 276 275
167 174 182 188 194 195 198 205 210 206 199 199 206 222 240 261 273 281 287 291 295 297 298 297 298 299 300 302 302 302 302 300 299 298 297 297 297 296 297 295 294 291 290 289 288 287 286 285 283 282 280 277 275 273
157 162 164 167 167 163 166 173 186 201 215 232 248 261 270 276 283 290 298 304 307 307 307 308 309 310 309 308 307 306 305 304 303 303 303 302 302 301 299 299 298 295 294 294 294 294 293 292 291 289 287 285 282 280
155 154 155 153 159 165 179 197 214 229 240 249 256 268 279 291 299 306 311 311 310 312 314 315 314 313 312 311 309 308 307 306 305 305 304 304 303 302 302 300 299 297 298 299 301 302 302 301 300 299 298 296 293 289
162 165 164 161 159 159 164 162 158 239 271 285 294 296 296 299 307 314 316 316 318 321 323 324 325 326 326 324 320 315 312 312 311 310 308 305 303 303 301 298 296 295 295 296 297 298 299 300 300 301 300 299 298 297
189 193 198 204 206 223 276 303 305 318 316 307 296 290 294 307 314 317 317 318 324 331 335 337 338 335 332 332 329 324 321 317 313 310 306 304 303 305 305 303 301 299 298 297 297 297 297 297 297 297 297 297 296 296